EZY44PM EGGW-EGPE

Flight info

Callsign EZY44PM
Flight time N/A
Altitude 36000
Route OLNEY T420 TNT UN57 POL UN601 RIBEL DCT ABEVI DCT INPIP DCT TLA DCT FOYLE/N0426F250 N560 NESDI DCT GUSSI
Aircraft A320/M-SDE3FGHIRWY/LB1

Departure

Time 2026-04-27 20:19
Airport London Luton Airport (EGGW)

Arrival

Time N/A
Airport Inverness Airport (EGPE)
Time Latitude Longitude Altitude Speed Heading
2026-04-27 20:19 51.99975 -0.49764 8130 ft 352 kts 313°
2026-04-27 20:19 52.01595 -0.52691 9565 ft 343 kts 313°
2026-04-27 20:19 52.03189 -0.55567 10784 ft 338 kts 312°
2026-04-27 20:19 52.04753 -0.58462 11762 ft 335 kts 312°
2026-04-27 20:20 52.06267 -0.61296 12457 ft 337 kts 312°
2026-04-27 20:20 52.07810 -0.64185 13256 ft 340 kts 312°
2026-04-27 20:20 52.09375 -0.67097 14035 ft 343 kts 313°
2026-04-27 20:20 52.10954 -0.70025 14726 ft 346 kts 313°
2026-04-27 20:21 52.12609 -0.72861 15419 ft 347 kts 319°
2026-04-27 20:21 52.14569 -0.75181 16109 ft 349 kts 329°
2026-04-27 20:21 52.16651 -0.77229 16802 ft 351 kts 328°
2026-04-27 20:21 52.18744 -0.79298 17487 ft 353 kts 328°
2026-04-27 20:22 52.20847 -0.81382 18141 ft 355 kts 328°
2026-04-27 20:22 52.22966 -0.83484 18770 ft 357 kts 328°
2026-04-27 20:22 52.25090 -0.85600 19338 ft 359 kts 328°
2026-04-27 20:22 52.27228 -0.87733 19879 ft 361 kts 328°
2026-04-27 20:23 52.29382 -0.89877 20455 ft 363 kts 329°
2026-04-27 20:23 52.31550 -0.92032 20970 ft 366 kts 329°
2026-04-27 20:23 52.33733 -0.94205 21493 ft 368 kts 329°
2026-04-27 20:23 52.35927 -0.96395 22008 ft 370 kts 329°
2026-04-27 20:24 52.38134 -0.98599 22536 ft 372 kts 330°
2026-04-27 20:24 52.40346 -1.00804 23111 ft 370 kts 331°
2026-04-27 20:24 52.42530 -1.02987 23862 ft 366 kts 331°
2026-04-27 20:24 52.44702 -1.05161 24342 ft 366 kts 331°
2026-04-27 20:25 52.46877 -1.07341 24746 ft 368 kts 331°
2026-04-27 20:25 52.48325 -1.08792 24976 ft 369 kts 331°